[[{"header":{"parameterUnit":"m.s-1","parameterCategory":1,"la1":30.2991,"la2":30.254,"lo1":-89.0895,"lo2":-89.0444,"dy":0.0017,"dx":0.0017,"nx":28,"ny":28,"refTime":"2024-06-20T03:00:00:Z","depth":0,"parameterNumber":2,"parameterNumberName":"U-component_of_WINDS"},"data":[0,0,0,0,0,0,0,0,0,0,0,0,0,0,0,0,0,0,0,0,0,0,0,0,0,0,0,0,0,0,0,0,0,0,0,0,0,0,0,0,0,0,0,0,0,0,0,0,0,0,0,0,0,0,0,0,0,0,-6.0481,-6.048,0,-6.047,-6.047,-6.047,-6.0326,-6.0322,-6.0319,-6.0315,-6.0307,-6.031,-6.0313,0,0,0,0,0,0,0,0,0,0,0,0,0,-6.0378,-6.038,-6.0481,-6.048,-6.048,-6.047,-6.047,-6.047,-6.0327,-6.0322,-6.0318,-6.0313,-6.0306,-6.0309,-6.0313,0,0,0,0,0,0,0,0,0,0,0,0,0,-6.0401,-6.0381,-6.0481,-6.0407,-6.0401,-6.0471,-6.047,-6.047,-6.0328,-6.0322,-6.0316,-6.0311,-6.0304,-6.0309,-6.0314,-6.0453,0,0,-6.0328,-6.033,0,0,0,0,0,0,0,0,-6.04,-6.0405,-6.0418,-6.0413,-6.0405,-6.0394,-6.0431,-6.0465,-6.0329,-6.0355,-6.0315,-6.0309,-6.034,-6.0342,-6.0352,-6.0453,-6.0453,-6.0329,-6.0332,-6.0334,-6.0335,0,0,0,0,0,0,0,-6.0398,-6.0404,-6.0476,-6.0419,-6.0411,-6.0376,-6.0373,-6.0437,-6.0379,-6.0353,-6.0342,-6.0343,-6.0336,-6.0348,-6.0351,-6.0452,-6.0329,-6.0333,-6.0336,-6.0338,-6.067,-6.0675,0,0,0,0,0,0,-6.0407,-6.0404,-6.0477,-6.0476,-6.0389,-6.0382,-6.0379,-6.0403,-6.0378,-6.0369,-6.0348,-6.0336,-6.0342,-6.0345,-6.035,-6.0513,-6.0334,-6.0338,-6.0341,-6.0664,-6.0671,-6.0677,0,0,0,0,0,0,-6.0405,-6.0414,-6.0477,-6.0437,-6.0443,-6.039,-6.0418,-6.0406,-6.0418,-6.0374,-6.0363,-6.037,-6.0338,-6.0343,-6.0429,-6.0511,-6.034,-6.0345,-6.0657,-6.0666,-6.0674,-6.084,0,0,0,0,0,0,-6.0403,-6.0415,-6.0466,-6.0439,-6.0445,-6.0556,-6.0423,-6.041,-6.0426,-6.0411,-6.0392,-6.0384,-6.0334,-6.0423,-6.0434,-6.0514,-6.0348,-6.0649,-6.0661,-6.0671,-6.0827,-6.0853,-6.0876,0,0,0,0,0,-6.0399,-6.0513,-6.047,-6.0479,-6.0509,-6.0561,-6.0565,-6.0504,-6.0433,-6.0485,-6.0458,-6.0385,-6.05,-6.0433,-6.0444,-6.0527,-6.0644,-6.0657,-6.067,-6.0816,-6.0848,-6.0875,0,0,0,0,0,0,-6.0551,-6.0508,-6.046,-6.0568,-6.057,-6.0537,-6.06,-6.054,-6.0562,-6.0547,-6.0472,-6.0469,-6.0567,-6.0555,-6.0481,-6.0662,-6.0559,-6.0576,-6.0666,-6.0696,-6.072,-6.0721,-6.0352,0,0,0,0,0,-6.0598,-6.0643,-6.0603,-6.0703,-6.0706,-6.0654,-6.0674,-6.0628,-6.0626,-6.0626,-6.0604,-6.0607,-6.0643,-6.0669,-6.07,-6.0824,-6.0819,-6.0887,-6.0912,-6.0932,-6.0947,-6.1014,-6.1044,-6.0721,-6.0721,-6.0721,0,0,-6.0693,-6.0676,-6.0709,-6.0733,-6.0729,-6.0779,-6.0655,-6.0713,-6.0749,-6.0635,-6.0715,-6.07,-6.0697,-6.0803,-6.0849,-6.0797,-6.1036,-6.0949,-6.0966,-6.097,-6.1031,-6.1062,-6.1089,-6.073,-6.0729,-6.0727,0,0,-6.0894,-6.0884,-6.0967,-6.0965,-6.096,-6.0925,-6.0945,-6.0922,-6.0907,-6.0986,-6.0902,-6.0945,-6.1009,-6.1011,-6.1021,-6.1225,-6.1159,-6.1237,-6.1365,-6.1432,-6.1457,-6.1479,-6.1553,-6.1581,-6.1252,-6.1253,-6.1253,0,-6.1014,-6.1084,-6.1017,-6.1081,-6.1095,-6.0994,-6.1078,-6.108,-6.1086,-6.1098,-6.1039,-6.1119,-6.111,-6.1216,-6.1266,-6.1277,-6.1299,-6.1239,-6.1459,-6.148,-6.15,-6.157,-6.1598,-6.1262,-6.1261,-6.126,-6.1259,0,-6.1233,-6.1284,-6.1352,-6.136,-6.1381,-6.1455,-6.14,-6.143,-6.1383,-6.1354,-6.1437,-6.1423,-6.145,-6.1472,-6.1426,-6.1573,-6.1541,-6.1472,-6.1367,-6.1542,-6.1606,-6.1632,-6.1276,-6.1272,-6.127,-6.1267,0,0,-6.1528,-6.1499,-6.1526,-6.1529,-6.1517,-6.1555,-6.1625,-6.1651,-6.168,-6.1687,-6.1745,-6.1803,-6.1739,-6.175,-6.1704,-6.1762,-6.1926,-6.1685,-6.1684,-6.1732,-6.2089,-6.2142,-6.2174,-6.1882,-6.1887,-6.1891,-6.209,0,-6.1722,-6.1839,-6.1782,-6.1907,-6.1954,-6.1859,-6.192,-6.1921,-6.1896,-6.1933,-6.1906,-6.1949,-6.1861,-6.1868,-6.1921,-6.1895,-6.1997,-6.1879,-6.1937,-6.194,-6.1941,-6.2207,-6.2263,-6.2451,-6.2114,-6.2119,-6.2122,0,-6.1964,-6.1983,-6.2112,-6.2093,-6.2111,-6.2167,-6.2187,-6.2223,-6.2222,-6.2201,-6.2214,-6.2155,-6.2223,-6.212,-6.2214,-6.2136,-6.2156,-6.2147,-6.2153,-6.2156,-6.2042,-6.222,-6.251,-6.2539,-6.216,-6.2157,-6.2155,0,-6.2168,-6.2226,-6.2311,-6.2316,-6.2296,-6.2338,-6.2331,-6.2324,-6.2344,-6.2363,-6.2376,-6.2402,-6.2417,-6.244,-6.239,-6.2318,-6.2492,-6.2384,-6.2477,-6.2479,-6.2518,-6.2517,-6.2817,-6.253,-6.253,-6.2529,-6.2529,0,-6.2392,-6.2475,-6.2402,-6.2455,-6.2546,-6.248,-6.2572,-6.2556,-6.2551,-6.2599,-6.2519,-6.2567,-6.2497,-6.2539,-6.25,-6.2585,-6.2592,-6.2578,-6.2567,-6.2585,-6.2588,-6.2598,-6.2584,-6.2537,-6.2535,-6.2534,-6.2532,0,-6.2635,-6.259,-6.2677,-6.265,-6.2646,-6.2714,-6.2692,-6.274,-6.2711,-6.2774,-6.2785,-6.2739,-6.2784,-6.2736,-6.2777,-6.2751,-6.2866,-6.2835,-6.2867,-6.2859,-6.2956,-6.2948,-6.3274,-6.3314,-6.3001,-6.3004,-6.3007,0,-6.2781,-6.2843,-6.2824,-6.2851,-6.2849,-6.2893,-6.2913,-6.2851,-6.2876,-6.2881,-6.2929,-6.2967,-6.2994,-6.307,-6.3041,-6.3073,-6.3042,-6.3155,-6.3047,-6.3065,-6.3046,-6.3043,-6.305,-6.3177,-6.3181,-6.3184,-6.3186,0,-6.3046,-6.302,-6.3052,-6.3078,-6.3105,-6.3122,-6.3133,-6.316,-6.3096,-6.3128,-6.3173,-6.3194,-6.3236,-6.3275,-6.3299,-6.3293,-6.3231,-6.3221,-6.3244,-6.3265,-6.3281,-6.3275,-6.2928,-6.3214,-6.3211,-6.3209,-6.3207,-6.3206,-6.3245,-6.3297,-6.3292,-6.3331,-6.3333,-6.3346,-6.339,-6.3367,-6.3403,-6.3432,-6.3393,-6.3449,-6.3448,-6.3473,-6.3475,-6.3519,-6.3471,-6.3505,-6.3514,-6.3523,-6.3538,-6.3274,-6.3523,-6.3522,-6.3521,-6.352,-6.352,0,-6.3506,-6.3499,-6.3536,-6.3554,-6.3586,-6.3523,-6.3533,-6.3564,-6.3614,-6.3618,-6.3646,-6.3699,-6.3737,-6.3712,-6.3745,-6.3785,-6.3757,-6.3795,-6.3792,-6.3792,-6.3578,-6.3555,-6.3817,-6.3817,-6.3817,-6.3817,-6.3817,-6.3817,-6.3646,-6.3731,-6.3705,-6.379,-6.3782,-6.3836,-6.3847,-6.3859,-6.3862,-6.3924,-6.3955,-6.3939,-6.3932,-6.3963,-6.3996,-6.3988,-6.4004,-6.4054,-6.4036,-6.3836,-6.3807,-6.3779,-6.3757,-6.4058,-6.4058,-6.4246,-6.4248,-6.4249]},{"header":{"parameterUnit":"m.s-1","parameterCategory":1,"la1":30.2991,"la2":30.254,"lo1":-89.0895,"lo2":-89.0444,"dy":0.0017,"dx":0.0017,"nx":28,"ny":28,"refTime":"2024-06-20T03:00:00:Z","depth":0,"parameterNumber":3,"parameterNumberName":"V-component_of_WINDS"},"data":[0,0,0,0,0,0,0,0,0,0,0,0,0,0,0,0,0,0,0,0,0,0,0,0,0,0,0,0,0,0,0,0,0,0,0,0,0,0,0,0,0,0,0,0,0,0,0,0,0,0,0,0,0,0,0,0,0,0,-0.4608,-0.4608,0,-0.4592,-0.4592,-0.4592,-0.4537,-0.4536,-0.4535,-0.4533,-0.452,-0.4521,-0.4522,0,0,0,0,0,0,0,0,0,0,0,0,0,-0.4594,-0.4595,-0.4608,-0.4608,-0.4608,-0.4592,-0.4592,-0.4592,-0.4537,-0.4536,-0.4534,-0.4533,-0.452,-0.4521,-0.4522,0,0,0,0,0,0,0,0,0,0,0,0,0,-0.4591,-0.4595,-0.4608,-0.4579,-0.4576,-0.4592,-0.4592,-0.4592,-0.4538,-0.4536,-0.4534,-0.4532,-0.4519,-0.4521,-0.4522,-0.4566,0,0,-0.4525,-0.4526,0,0,0,0,0,0,0,0,-0.4592,-0.4592,-0.4583,-0.4581,-0.4578,-0.4565,-0.4582,-0.4583,-0.4538,-0.4552,-0.4533,-0.4531,-0.4537,-0.4536,-0.4537,-0.4566,-0.4565,-0.4526,-0.4526,-0.4527,-0.4527,0,0,0,0,0,0,0,-0.4592,-0.4592,-0.4602,-0.4583,-0.458,-0.4567,-0.4564,-0.4582,-0.4555,-0.4551,-0.4547,-0.4545,-0.4535,-0.4536,-0.4537,-0.4565,-0.4525,-0.4527,-0.4527,-0.4528,-0.4629,-0.4631,0,0,0,0,0,0,-0.4596,-0.4593,-0.4602,-0.4601,-0.458,-0.4569,-0.4566,-0.4571,-0.4555,-0.455,-0.4547,-0.4543,-0.4535,-0.4535,-0.4536,-0.4588,-0.4527,-0.4528,-0.4529,-0.4627,-0.4629,-0.4632,0,0,0,0,0,0,-0.4596,-0.4597,-0.4603,-0.4596,-0.4596,-0.4571,-0.4577,-0.4571,-0.4573,-0.4552,-0.4547,-0.4554,-0.4534,-0.4534,-0.4559,-0.4587,-0.4528,-0.4529,-0.4625,-0.4628,-0.4631,-0.4692,0,0,0,0,0,0,-0.4596,-0.4598,-0.4614,-0.4597,-0.4596,-0.4626,-0.4578,-0.4572,-0.4575,-0.4569,-0.4557,-0.4553,-0.4532,-0.4557,-0.456,-0.4587,-0.453,-0.4622,-0.4626,-0.463,-0.4687,-0.4697,-0.4705,0,0,0,0,0,-0.4595,-0.4632,-0.4615,-0.4617,-0.4616,-0.4628,-0.4628,-0.4602,-0.4577,-0.4594,-0.458,-0.4553,-0.4582,-0.456,-0.4563,-0.4591,-0.462,-0.4625,-0.4629,-0.4684,-0.4695,-0.4704,0,0,0,0,0,0,-0.4655,-0.463,-0.461,-0.4643,-0.4638,-0.4618,-0.4639,-0.4615,-0.4618,-0.4613,-0.4582,-0.458,-0.4609,-0.4602,-0.4578,-0.4633,-0.4597,-0.4602,-0.4637,-0.4648,-0.4656,-0.4659,-0.4531,0,0,0,0,0,-0.4672,-0.4682,-0.466,-0.4691,-0.4689,-0.4664,-0.4669,-0.4649,-0.4643,-0.4641,-0.4629,-0.4625,-0.4633,-0.464,-0.4646,-0.4685,-0.4682,-0.4705,-0.4714,-0.4721,-0.4727,-0.4748,-0.4758,-0.4646,-0.4646,-0.4646,0,0,-0.4707,-0.4694,-0.4703,-0.4702,-0.4696,-0.4709,-0.4663,-0.4679,-0.4688,-0.4644,-0.4667,-0.4657,-0.4651,-0.4683,-0.4697,-0.4678,-0.4757,-0.4727,-0.4733,-0.4735,-0.4754,-0.4764,-0.4774,-0.4649,-0.4649,-0.4648,0,0,-0.4778,-0.4769,-0.4794,-0.4788,-0.4779,-0.4762,-0.4768,-0.4752,-0.4744,-0.4766,-0.4733,-0.4744,-0.4758,-0.4755,-0.4756,-0.4824,-0.48,-0.4826,-0.4873,-0.4893,-0.4902,-0.491,-0.4936,-0.4946,-0.4832,-0.4832,-0.4832,0,-0.4824,-0.4841,-0.481,-0.4828,-0.4829,-0.4787,-0.4813,-0.4809,-0.4803,-0.4805,-0.4783,-0.4801,-0.4793,-0.4825,-0.4841,-0.4842,-0.4849,-0.4829,-0.4903,-0.4911,-0.4917,-0.4942,-0.4952,-0.4835,-0.4835,-0.4834,-0.4834,0,-0.4898,-0.4911,-0.4932,-0.4926,-0.4929,-0.495,-0.4924,-0.493,-0.491,-0.4896,-0.4919,-0.4908,-0.4911,-0.4917,-0.4898,-0.4946,-0.4934,-0.4908,-0.4872,-0.4932,-0.4955,-0.4964,-0.484,-0.4839,-0.4838,-0.4837,0,0,-0.501,-0.4985,-0.4994,-0.499,-0.4976,-0.4985,-0.5005,-0.5007,-0.5014,-0.501,-0.5027,-0.5039,-0.5015,-0.5016,-0.4995,-0.5013,-0.507,-0.4985,-0.4984,-0.5003,-0.5124,-0.5145,-0.5157,-0.5052,-0.5054,-0.5055,-0.5125,0,-0.508,-0.5111,-0.5083,-0.5121,-0.5132,-0.5092,-0.5109,-0.5102,-0.5089,-0.5097,-0.5082,-0.5092,-0.5058,-0.5058,-0.5074,-0.506,-0.5094,-0.5054,-0.5069,-0.507,-0.5075,-0.5168,-0.5191,-0.5258,-0.5133,-0.5135,-0.5136,0,-0.5166,-0.5165,-0.5203,-0.5186,-0.519,-0.5206,-0.5205,-0.5213,-0.5205,-0.5193,-0.5193,-0.5167,-0.5186,-0.5148,-0.5174,-0.5147,-0.5151,-0.5145,-0.5147,-0.515,-0.5109,-0.5176,-0.5279,-0.529,-0.5149,-0.5148,-0.5147,0,-0.5246,-0.5254,-0.5278,-0.5276,-0.5256,-0.5268,-0.5261,-0.525,-0.5253,-0.5253,-0.5255,-0.5257,-0.5259,-0.5262,-0.5238,-0.5212,-0.5267,-0.5227,-0.526,-0.5261,-0.5277,-0.5277,-0.5384,-0.5275,-0.5275,-0.5274,-0.5274,0,-0.5328,-0.5354,-0.5314,-0.5329,-0.5357,-0.5324,-0.5352,-0.5341,-0.5331,-0.5344,-0.5308,-0.5322,-0.5287,-0.5297,-0.5278,-0.5304,-0.5304,-0.5297,-0.5292,-0.5302,-0.5303,-0.5306,-0.5302,-0.5277,-0.5277,-0.5276,-0.5276,0,-0.5424,-0.5398,-0.5422,-0.54,-0.5395,-0.5417,-0.5399,-0.5412,-0.5395,-0.5412,-0.5414,-0.5387,-0.5397,-0.5372,-0.5378,-0.5365,-0.5402,-0.5388,-0.5405,-0.5402,-0.5438,-0.5436,-0.5553,-0.5568,-0.5447,-0.5448,-0.5449,0,-0.548,-0.5498,-0.5478,-0.5483,-0.5477,-0.5487,-0.5489,-0.5457,-0.5461,-0.5452,-0.5467,-0.5473,-0.5477,-0.5494,-0.5476,-0.548,-0.5468,-0.5509,-0.5469,-0.5478,-0.5471,-0.5472,-0.5474,-0.5518,-0.552,-0.5521,-0.5522,0,-0.5582,-0.5568,-0.5572,-0.5572,-0.5576,-0.5575,-0.5571,-0.5578,-0.5543,-0.555,-0.5558,-0.5561,-0.5566,-0.5573,-0.5573,-0.5566,-0.5539,-0.5534,-0.5542,-0.5554,-0.5564,-0.5561,-0.5431,-0.5532,-0.5531,-0.553,-0.553,-0.5529,-0.5661,-0.5676,-0.5664,-0.567,-0.5663,-0.566,-0.5672,-0.5656,-0.5662,-0.5663,-0.5643,-0.5656,-0.5647,-0.5644,-0.5639,-0.5649,-0.5631,-0.5642,-0.5646,-0.565,-0.5657,-0.5559,-0.5649,-0.5648,-0.5648,-0.5648,-0.5648,0,-0.5764,-0.5753,-0.5759,-0.5754,-0.5759,-0.573,-0.5725,-0.5731,-0.5743,-0.5735,-0.5739,-0.5749,-0.5755,-0.5737,-0.574,-0.5752,-0.574,-0.5755,-0.5755,-0.5754,-0.5672,-0.5666,-0.5764,-0.5764,-0.5764,-0.5764,-0.5764,-0.5764,-0.5818,-0.5842,-0.5826,-0.5846,-0.5835,-0.5847,-0.5846,-0.5844,-0.5838,-0.585,-0.5855,-0.5842,-0.583,-0.5833,-0.5838,-0.5832,-0.5836,-0.5856,-0.5846,-0.5771,-0.576,-0.5749,-0.5743,-0.5856,-0.5856,-0.5927,-0.5928,-0.5929]}]]